North Adams, MA

2:42 PM EST on January 23, 2017 (GMT -0500)
Harriman And West

Weather History for KAQW - December, 2012

Change the Weather History Date:

Monday, December 10, 2012

  Actual Average Record
Temperature  
Mean Temperature 47 °F -  
Max Temperature 55 °F 37 °F 57 °F (2008)
Min Temperature 39 °F 22 °F 1 °F (2010)
Degree Days  
Heating Degree Days 18    
Moisture  
Dew Point 44 °F    
Average Humidity 88    
Maximum Humidity 100    
Minimum Humidity 77    
Precipitation  
Precipitation 0.17 in - - ()
Sea Level Pressure  
Sea Level Pressure 29.65 in    
Wind  
Wind Speed 7 mph (East)    
Max Wind Speed 15 mph    
Max Gust Speed 29 mph    
Visibility 7 miles    
Events Rain    
Averages and records for this station are not official NWS values.
T = Trace of Precipitation, MM = Missing Value Source: NWS Daily Summary

Daily Weather History Graph

Daily Weather History Graph

Search for Another Location

Airport or City:

Trip Planner

Search our weather history database for the weather conditions in past years. The results will help you decide how hot, cold, wet, or windy it might be!

Date:

Astronomy

Dec. 10, 2012 Rise Set
Actual Time 7:12 AM EST 4:18 PM EST
Civil Twilight 6:40 AM EST 4:50 PM EST
Nautical Twilight 6:04 AM EST 5:26 PM EST
Astronomical Twilight 5:30 AM EST 6:00 PM EST
Moon 3:49 AM EST (12/10) 2:08 PM EST (12/10)
Length of Visible Light 10h 10m
Length of Day
9h 06m
Waning Crescent, 10% of the Moon is Illuminated
Dec 10
Waning Crescent
Dec 13
New
Dec 20
First Quarter
Dec 28
Full
Jan 4
Last Quarter

Hourly Weather History & Observations

Time (EST) Temp. Windchill Dew Point Humidity Pressure Visibility Wind Dir Wind Speed Gust Speed Precip Events Conditions
12:52 AM 39.0 °F 32.8 °F 33.1 °F 79% 30.05 in 8.0 mi East 9.2 mph 23.0 mph 0.02 in Rain Light Rain
1:52 AM 39.0 °F 31.4 °F 34.0 °F 82% 30.00 in 9.0 mi East 12.7 mph 28.8 mph 0.00 in   Overcast
2:01 AM 39.2 °F 31.2 °F 33.8 °F 81% 29.98 in 10.0 mi East 13.8 mph 27.6 mph N/A   Overcast
2:52 AM 39.0 °F 34.0 °F 34.0 °F 82% 29.98 in 4.0 mi Variable 6.9 mph 20.7 mph 0.01 in Rain Light Rain
3:52 AM 39.0 °F 34.8 °F 35.1 °F 86% 29.94 in 8.0 mi Variable 5.8 mph - 0.02 in Rain Light Rain
4:52 AM 39.0 °F 32.8 °F 36.0 °F 89% 29.89 in 5.0 mi ENE 9.2 mph 17.3 mph 0.03 in Rain Light Rain
5:52 AM 39.0 °F 31.8 °F 36.0 °F 89% 29.84 in 8.0 mi East 11.5 mph 19.6 mph 0.00 in   Overcast
6:52 AM 39.9 °F 32.9 °F 36.0 °F 86% 29.81 in 10.0 mi ENE 11.5 mph 20.7 mph N/A   Overcast
7:52 AM 39.9 °F 33.4 °F 37.0 °F 89% 29.78 in 7.0 mi ENE 10.4 mph 21.9 mph N/A   Overcast
8:52 AM 42.1 °F 36.1 °F 37.9 °F 85% 29.76 in 10.0 mi East 10.4 mph 19.6 mph N/A   Overcast
9:52 AM 43.0 °F 37.7 °F 39.9 °F 89% 29.73 in 10.0 mi ENE 9.2 mph 23.0 mph N/A   Overcast
10:52 AM 48.0 °F - 43.0 °F 83% 29.68 in 10.0 mi ESE 8.1 mph 18.4 mph N/A   Overcast
11:49 AM 48.2 °F - 44.6 °F 87% 29.63 in 10.0 mi Variable 5.8 mph - N/A   Mostly Cloudy
11:52 AM 50.0 °F - 46.0 °F 86% 29.64 in 10.0 mi ESE 8.1 mph - N/A   Overcast
12:18 PM 51.8 °F - 46.4 °F 82% 29.63 in 10.0 mi ESE 3.5 mph - N/A   Overcast
12:52 PM 53.1 °F - 48.0 °F 83% 29.61 in 10.0 mi ENE 3.5 mph - N/A   Overcast
1:52 PM 55.0 °F - 48.9 °F 80% 29.59 in 10.0 mi WSW 5.8 mph - N/A   Mostly Cloudy
2:31 PM 55.4 °F - 48.2 °F 77% 29.57 in 10.0 mi SW 12.7 mph - N/A   Overcast
2:52 PM 54.0 °F - 48.9 °F 83% 29.57 in 10.0 mi East 3.5 mph - N/A   Overcast
3:41 PM 53.6 °F - 50.0 °F 88% 29.55 in 9.0 mi ENE 3.5 mph - 0.01 in Rain Light Rain
3:52 PM 52.0 °F - 50.0 °F 93% 29.57 in 5.0 mi Calm Calm - 0.02 in Rain Light Rain
4:03 PM 51.8 °F - 50.0 °F 94% 29.56 in 7.0 mi Calm Calm - 0.00 in Rain Light Rain
4:52 PM 51.1 °F - 48.9 °F 92% 29.56 in 4.0 mi South 4.6 mph - 0.00 in   Overcast
5:14 PM 50.0 °F - 48.2 °F 94% 29.54 in 2.5 mi Calm Calm - N/A   Overcast
5:27 PM 50.0 °F - 48.2 °F 94% 29.54 in 3.0 mi Calm Calm - N/A   Overcast
5:45 PM 51.8 °F - 50.0 °F 94% 29.53 in 3.0 mi Calm Calm - 0.01 in Rain Light Rain
5:52 PM 50.0 °F - 48.9 °F 96% 29.54 in 2.5 mi Calm Calm - 0.01 in Rain Light Rain
6:10 PM 50.0 °F - 48.2 °F 94% 29.52 in 3.0 mi Calm Calm - 0.01 in Rain Light Rain
6:17 PM 50.0 °F - 48.2 °F 94% 29.52 in 1.8 mi Calm Calm - 0.01 in Rain Light Rain
6:36 PM 50.0 °F - 48.2 °F 94% 29.51 in 2.5 mi NE 3.5 mph - 0.02 in Rain Light Rain
6:52 PM 48.9 °F - 48.0 °F 97% 29.52 in 2.5 mi Calm Calm - 0.02 in Rain Light Rain
7:08 PM 50.0 °F - 48.2 °F 94% 29.51 in 4.0 mi Calm Calm - 0.01 in Rain Light Rain
7:52 PM 50.0 °F - 48.9 °F 96% 29.51 in 4.0 mi Calm Calm - 0.02 in Rain Light Rain
8:30 PM 48.2 °F - 48.2 °F 100% 29.50 in 1.8 mi Calm Calm - 0.00 in Rain Light Rain
8:39 PM 50.0 °F - 48.2 °F 94% 29.51 in 2.5 mi Calm Calm - 0.01 in Rain Light Rain
8:52 PM 50.0 °F - 46.9 °F 89% 29.55 in 4.0 mi West 15.0 mph 27.6 mph 0.01 in Rain Light Rain
9:52 PM 46.0 °F 43.9 °F 39.9 °F 79% 29.58 in 10.0 mi WNW 4.6 mph - 0.01 in   Overcast
10:52 PM 43.0 °F 39.5 °F 37.9 °F 82% 29.62 in 10.0 mi WNW 5.8 mph 16.1 mph N/A   Overcast
11:04 PM 42.8 °F 37.0 °F 37.4 °F 81% 29.61 in 10.0 mi West 10.4 mph 16.1 mph N/A   Overcast
11:48 PM 42.8 °F 38.0 °F 37.4 °F 81% 29.62 in 10.0 mi West 8.1 mph - N/A   Overcast
11:52 PM 43.0 °F 37.7 °F 37.0 °F 80% 29.63 in 10.0 mi West 9.2 mph - N/A   Overcast